TimeEDT,TemperatureF,Dew PointF,Humidity,Sea Level PressureIn,VisibilityMPH,Wind Direction,Wind SpeedMPH,Gust SpeedMPH,PrecipitationIn,Events,Conditions,WindDirDegrees,DateUTC
12:53 AM,51.1,39.9,66,30.25,10.0,SE,3.5,-,N/A,,Mostly Cloudy,130,2013-04-30 04:53:00
1:53 AM,50.0,39.9,68,30.24,10.0,Calm,Calm,-,N/A,,Overcast,0,2013-04-30 05:53:00
2:53 AM,50.0,39.9,68,30.24,10.0,Calm,Calm,-,N/A,,Scattered Clouds,0,2013-04-30 06:53:00
3:53 AM,48.0,39.9,74,30.24,10.0,Calm,Calm,-,N/A,,Scattered Clouds,0,2013-04-30 07:53:00
4:53 AM,44.1,39.9,85,30.25,10.0,Calm,Calm,-,N/A,,Mostly Cloudy,0,2013-04-30 08:53:00
5:53 AM,45.0,39.9,82,30.26,10.0,Calm,Calm,-,N/A,,Mostly Cloudy,0,2013-04-30 09:53:00
6:53 AM,48.0,41.0,77,30.28,10.0,Calm,Calm,-,N/A,,Overcast,0,2013-04-30 10:53:00
7:53 AM,51.1,41.0,68,30.30,10.0,ENE,4.6,-,N/A,,Overcast,60,2013-04-30 11:53:00
8:53 AM,55.0,42.1,62,30.31,10.0,Variable,4.6,-,N/A,,Scattered Clouds,0,2013-04-30 12:53:00
9:53 AM,57.9,37.9,47,30.32,10.0,Calm,Calm,-,N/A,,Clear,0,2013-04-30 13:53:00
10:53 AM,60.1,32.0,35,30.32,10.0,Variable,4.6,-,N/A,,Mostly Cloudy,0,2013-04-30 14:53:00
11:53 AM,63.0,35.1,35,30.31,10.0,ESE,4.6,-,N/A,,Clear,110,2013-04-30 15:53:00
12:53 PM,64.0,26.1,24,30.30,10.0,Variable,4.6,-,N/A,,Clear,0,2013-04-30 16:53:00
1:53 PM,64.0,32.0,30,30.29,10.0,SE,10.4,17.3,N/A,,Clear,140,2013-04-30 17:53:00
2:53 PM,64.0,30.0,28,30.30,10.0,ESE,5.8,16.1,N/A,,Clear,120,2013-04-30 18:53:00
3:53 PM,63.0,28.0,27,30.30,10.0,SE,8.1,-,N/A,,Clear,140,2013-04-30 19:53:00
4:53 PM,62.1,27.0,26,30.31,10.0,SSE,6.9,-,N/A,,Clear,150,2013-04-30 20:53:00
5:53 PM,62.1,25.0,24,30.32,10.0,South,6.9,-,N/A,,Clear,180,2013-04-30 21:53:00
6:53 PM,60.1,24.1,25,30.32,10.0,SSE,6.9,-,N/A,,Clear,150,2013-04-30 22:53:00
7:53 PM,57.0,24.1,28,30.32,10.0,South,6.9,-,N/A,,Clear,170,2013-04-30 23:53:00
8:53 PM,55.0,25.0,31,30.33,10.0,SSE,4.6,-,N/A,,Clear,150,2013-05-01 00:53:00
9:53 PM,51.1,27.0,39,30.35,10.0,Calm,Calm,-,N/A,,Clear,0,2013-05-01 01:53:00
10:53 PM,46.0,30.9,56,30.35,10.0,Calm,Calm,-,N/A,,Clear,0,2013-05-01 02:53:00
11:53 PM,43.0,30.9,62,30.35,10.0,Calm,Calm,-,N/A,,Clear,0,2013-05-01 03:53:00